sat.trackr.live / text

‹ back to catalog

STARLINK-34806

NORAD 65065 · 2025-165K

PAYLOAD ACTIVE UNKNOWN

§ Identity

Operator
Country
US
Launch date
2025-07-31
Launch site
AFWTR
Launch vehicle
Mass (kg)
RCS (m²)

Purposes: comms

External: N2YO · Heavens-Above · Gunter

§ Orbital elements

Epoch: 2026-09-20T10:33:23.849568Z

Period
93.91 min
Inclination
97.2854°
Eccentricity
0.0001623
Mean motion
15.33454600 rev/d
Perigee alt
464.4 km
Apogee alt
466.6 km
Semi-major
6,843.7 km
B*
3.5037e-4
RAAN
334.6206°
Arg perigee
94.9715°
Mean anomaly
265.1713°
Rev number
6,411

§ Raw data

STARLINK-348061 65065U 25165K   26263.43985937  .00011256  00000+0  35037-3 0  99932 65065  97.2854 334.6206 0001623  94.9715 265.1713 15.33454600 64118

JSON: /api/v1/satellites/65065 · /tle

For live sub-satellite position, see the globe view (requires WebGL).

§ Visibility from observer

Set your observer location to see the next 7 days of passes ≥ 10°. The values pass through the URL so the page stays shareable.

No JS? Fill the form by hand. The geolocation button needs JavaScript.